RH
52 99 85 68 57 61 58 74 85 88 100 100 100 96 78 76 61 56 56 58 61 52 50 52 48 45 41 34 35 32 30 32 36 41 46 50 54 54 55 55 54 52 49
60 96 100 93 65 65 65 72 100 97 99 100 100 100 100 91 90 85 63 49 49 42 50 52 49 48 47 55 54 49 44 41 38 39 42 45 46 47 48 48 48 48 46
65 78 100 100 82 64 58 68 71 95 86 100 100 100 95 100 100 98 100 86 65 48 61 64 64 64 67 67 60 64 65 55 51 45 42 42 43 43 42 43 44 42 39
71 81 100 100 96 75 67 77 71 57 79 80 100 100 100 100 100 100 95 100 98 95 89 84 80 81 84 85 81 74 68 55 50 56 47 47 47 49 51 53 49 44 42
85 75 100 100 100 93 78 66 82 73 61 80 90 100 100 100 100 100 98 98 95 92 88 89 90 88 94 97 99 94 85 86 84 70 74 63 51 47 48 55 62 58 52
100 86 100 100 100 96 89 81 78 80 76 46 67 73 81 93 94 100 100 100 92 83 88 90 86 76 69 64 62 57 59 62 66 65 69 79 84 75 60 50 47 50 51
100 97 100 100 100 100 92 89 76 76 95 77 62 58 66 82 80 77 96 100 100 100 86 65 56 49 41 45 44 43 45 44 46 62 70 69 71 71 62 56 57 53 52
100 98 97 100 100 100 100 100 83 87 99 92 84 62 71 78 73 87 70 62 64 60 66 78 67 58 48 49 48 44 45 45 46 45 47 46 46 48 50 51 56 57 59
100 95 93 100 100 100 100 100 100 99 99 100 100 80 98 98 94 90 92 78 75 84 79 68 63 79 70 55 52 60 53 58 55 53 64 57 50 52 50 49 49 51 58
100 99 85 95 100 100 100 100 100 100 100 100 100 99 99 100 100 100 100 94 85 84 81 93 95 94 86 86 77 72 72 85 82 86 77 76 71 62 57 54 54 62 71
100 100 93 100 100 100 100 100 100 100 100 100 100 100 100 84 99 100 100 100 96 99 100 93 95 100 96 99 98 89 81 89 82 82 77 76 86 82 73 67 58 63 64
100 100 93 97 100 100 100 100 100 100 100 100 100 100 100 88 83 100 100 100 100 100 98 98 93 96 100 100 100 91 100 98 97 94 95 81 65 63 63 64 70 77 71
77 88 88 81 92 100 100 100 100 100 100 100 100 100 100 100 93 89 100 100 100 100 100 97 94 94 85 66 77 87 73 75 82 85 85 87 81 85 85 75 70 68 73
66 80 99 99 83 93 100 100 100 100 100 100 100 100 100 100 100 100 100 100 100 100 100 100 98 99 99 95 96 92 90 83 76 78 84 84 78 72 70 75 73 70 67
43 76 75 91 91 89 100 100 100 100 100 100 100 100 100 100 100 100 97 100 100 100 100 100 100 100 100 100 99 98 95 96 98 92 83 84 78 74 73 71 67 65 62
27 42 74 76 95 94 92 100 100 100 100 100 100 100 100 100 100 100 100 100 99 100 100 100 100 100 100 100 100 100 100 100 100 100 100 100 98 91 90 83 66 66 66
19 23 35 68 80 91 92 98 100 100 100 100 100 100 100 100 100 100 100 100 100 96 100 100 100 100 100 100 100 100 100 92 94 94 99 99 97 92 89 85 83 71 62
21 20 23 32 61 78 92 95 99 98 95 100 100 100 100 100 100 100 100 100 100 99 98 92 89 95 96 100 100 100 100 100 100 99 98 97 96 96 91 87 77 62 67
20 21 21 24 31 66 81 96 98 93 89 88 88 91 100 100 100 100 100 100 100 100 98 99 99 100 93 100 100 100 98 100 98 92 97 100 91 98 93 86 54 48 45
23 23 25 26 28 35 59 73 91 92 86 87 90 85 86 98 100 100 100 99 96 95 93 95 100 99 97 100 99 99 89 96 100 99 99 100 94 98 90 71 50 47 46
28 27 26 28 30 31 34 44 54 66 79 87 90 89 94 91 86 90 97 95 89 90 92 85 90 89 92 87 91 95 86 98 100 100 100 97 88 73 64 56 49 50 46
26 29 28 25 25 25 26 26 28 29 34 39 42 53 74 86 86 97 100 100 100 92 67 64 78 84 89 99 97 99 90 82 92 100 97 72 54 50 52 51 53 42 43
24 25 25 23 23 22 21 22 23 24 25 26 27 31 43 55 62 71 76 84 82 63 62 67 67 61 60 62 66 79 73 67 55 53 56 52 52 51 57 52 36 50 57
17 18 19 20 20 21 22 22 22 23 25 26 29 30 32 33 34 37 42 47 49 49 47 47 47 50 53 50 48 44 46 44 44 47 48 54 58 55 43 49 62 76 94
15 16 18 19 20 20 22 23 24 25 25 24 24 25 25 25 26 26 27 28 29 29 32 34 34 36 38 40 42 46 47 47 50 54 58 54 50 50 63 77 85 88 82
26 26 28 27 26 25 25 25 24 24 24 25 26 27 28 30 32 33 35 34 36 37 41 44 46 48 55 59 62 61 60 58 56 54 52 60 62 68 80 93 96 91 97
Wind_Speed
103 100 96 95 91 82 73 65 62 65 59 54 51 48 50 53 60 67 69 66 65 64 63 64 62 60 58 59 58 58 58 56 55 54 53 53 53 52 53 53 53 53 53
106 101 96 92 93 87 73 72 70 65 59 55 55 54 52 48 53 55 60 65 64 64 64 64 64 63 62 59 59 58 57 58 57 56 56 55 55 56 56 57 57 57 57
107 104 98 95 95 91 86 78 76 74 67 61 59 53 46 45 45 47 49 55 60 63 62 64 65 63 62 62 60 60 60 59 58 59 59 58 58 58 58 58 58 58 59
109 105 102 98 96 91 89 81 80 79 78 74 63 57 51 50 50 50 50 52 53 57 60 60 60 61 63 63 63 63 63 63 62 61 61 60 61 61 60 60 61 61 61
108 105 103 98 97 95 93 88 84 80 75 75 73 69 59 56 52 50 49 49 52 54 57 58 60 61 61 61 61 61 60 60 61 62 63 63 62 62 62 62 63 64 64
106 104 104 103 101 95 94 93 91 85 81 78 78 76 71 64 61 58 56 55 54 52 52 57 60 61 62 63 63 62 62 62 63 64 64 63 64 66 66 65 65 66 66
111 108 106 107 103 99 93 95 93 91 86 82 82 80 76 71 68 60 64 59 58 56 56 55 57 60 61 62 62 61 61 61 59 59 62 65 66 68 69 69 69 69 71
115 110 109 108 104 101 97 94 93 90 87 84 82 78 79 77 73 68 62 61 62 63 58 54 54 53 54 56 56 56 58 58 56 57 58 59 60 60 62 64 65 67 69
117 111 110 108 105 103 100 97 95 92 89 85 81 79 77 77 75 72 68 63 62 58 57 58 57 55 53 54 54 53 53 53 53 54 56 58 58 58 59 60 62 64 66
125 116 112 109 109 104 102 100 96 94 92 89 85 82 79 77 77 73 70 67 66 63 61 61 61 60 59 58 58 58 57 57 55 57 57 58 60 60 58 58 59 62 64
127 118 114 110 111 108 104 101 98 95 92 89 88 86 82 81 78 76 74 71 70 68 67 62 66 65 65 64 64 63 62 62 62 64 65 65 62 64 64 65 65 64 65
130 123 117 112 110 108 105 101 98 96 93 89 87 85 82 79 81 75 76 74 74 73 70 70 65 66 68 67 67 66 67 66 67 68 69 70 71 72 72 70 70 72 72
133 126 118 114 110 105 104 102 98 95 95 92 88 86 83 81 80 80 77 76 77 76 75 75 72 71 72 70 70 72 72 71 71 71 71 71 72 73 74 74 74 77 79
129 128 121 116 110 107 104 100 99 98 95 92 91 88 85 84 80 81 80 77 74 78 77 77 75 74 75 73 71 72 74 74 75 76 75 77 80 81 81 80 82 82 84
119 125 126 117 110 107 104 100 97 98 97 94 92 89 91 89 86 83 83 82 79 77 78 78 80 80 79 78 78 78 78 78 77 78 80 82 85 86 85 87 88 88 91
105 116 118 117 113 107 107 104 100 97 96 96 96 96 94 91 89 88 86 86 86 82 80 80 81 81 83 82 83 82 83 82 83 82 81 83 84 86 87 90 90 93 95
84 96 105 111 115 112 108 109 106 104 101 99 97 95 94 96 94 92 90 88 88 88 86 86 83 84 83 84 84 86 87 87 86 86 87 87 89 91 93 93 95 98 98
75 82 91 105 112 116 116 115 112 110 110 106 101 99 97 95 96 95 95 93 92 91 91 92 92 91 91 89 89 89 88 88 89 88 90 92 93 94 95 98 101 101 99
67 70 79 94 107 112 115 117 116 115 113 112 107 105 101 100 99 98 97 96 95 94 94 95 94 94 94 94 94 95 94 95 95 97 96 96 98 98 101 104 101 100 94
58 60 67 79 92 104 110 114 118 119 116 115 111 110 107 104 103 100 99 99 98 98 99 99 99 98 98 97 98 99 99 97 98 99 100 100 103 108 107 104 104 95 91
59 60 65 71 79 89 95 100 106 111 114 115 116 114 112 109 107 106 102 102 102 103 101 99 101 104 103 104 103 101 104 102 102 102 105 105 103 104 103 106 99 90 88
61 63 64 66 70 74 77 81 87 92 99 104 105 107 111 112 113 109 106 106 106 105 101 98 98 101 104 105 105 104 105 105 107 105 104 103 104 99 99 97 91 87 85
59 60 58 57 56 57 57 59 64 69 74 79 86 93 98 100 101 102 106 108 107 102 105 107 106 104 105 105 103 105 103 103 101 100 101 97 90 87 88 92 83 82 79
47 48 49 50 51 50 49 48 50 54 58 62 66 72 77 82 86 90 93 95 98 98 97 98 97 96 97 99 97 94 92 91 88 85 81 78 79 83 82 81 76 73 76
36 35 37 40 41 42 44 44 45 47 49 53 56 58 60 63 65 69 71 75 77 78 78 77 76 74 74 73 72 71 72 71 70 70 71 73 76 74 71 70 73 76 79
34 36 37 37 38 39 40 43 46 47 49 51 53 54 55 56 58 59 61 61 62 59 61 59 58 56 58 60 62 62 62 63 66 67 67 67 66 66 67 68 73 77 79
Wind_Direction
220 219 219 221 223 228 230 227 225 229 228 234 240 242 236 237 236 236 236 237 238 241 241 243 245 246 247 248 249 250 253 257 260 261 261 262 263 264 265 266 268 270 271
218 216 217 217 220 220 222 224 222 221 224 228 232 237 239 237 236 237 237 236 236 240 240 241 243 244 246 247 248 250 252 253 255 257 258 261 263 264 266 268 269 270 272
217 215 215 216 220 221 219 221 227 227 220 223 225 229 229 235 237 237 235 234 235 237 239 241 243 246 247 247 249 250 250 252 254 255 257 259 261 263 265 268 269 270 272
214 213 213 215 217 219 219 222 223 225 223 224 222 223 223 227 229 231 234 234 234 235 237 240 242 244 246 248 250 251 253 255 255 256 259 260 261 262 265 267 269 271 272
210 211 212 212 214 217 218 219 222 223 223 223 225 225 225 226 231 233 236 237 237 238 238 239 241 242 244 248 250 254 256 258 259 259 260 261 262 264 265 266 268 269 271
207 206 211 210 213 214 216 216 219 222 225 226 229 230 230 228 230 231 233 235 237 238 241 244 245 247 248 251 253 255 257 258 259 260 262 263 263 264 264 265 267 269 270
206 204 207 212 210 212 216 218 219 221 222 224 227 228 231 231 233 233 235 235 238 243 245 246 246 249 252 252 254 254 255 258 260 261 262 263 265 266 268 268 269 270 271
206 204 205 208 210 211 213 217 220 220 222 225 227 229 231 232 233 235 237 240 244 247 247 247 249 253 252 253 251 253 254 255 257 258 262 265 267 268 270 271 272 271 272
207 205 203 207 209 210 212 214 216 219 221 222 225 226 229 232 233 234 238 242 242 245 249 251 252 250 251 253 254 255 256 258 261 262 264 267 268 270 271 273 275 275 275
205 206 204 206 208 209 211 213 215 219 220 221 224 225 227 229 232 232 234 236 238 244 247 249 252 255 256 256 258 259 259 262 262 264 267 272 275 275 274 275 275 275 275
205 206 204 204 208 209 210 213 214 217 219 222 225 227 228 230 230 233 233 234 238 243 245 247 246 252 256 258 259 261 264 264 267 268 271 273 276 276 279 280 280 280 280
206 206 207 206 207 208 210 211 214 217 218 220 224 227 229 231 232 233 234 236 238 241 244 245 248 248 251 254 257 261 264 267 269 272 273 275 275 276 278 280 281 280 281
208 207 209 209 208 209 210 210 212 216 219 219 222 225 228 229 231 234 235 236 238 242 243 246 249 250 251 256 258 259 262 265 266 268 272 274 275 276 278 280 280 282 283
208 209 208 211 211 210 211 212 213 214 217 219 221 223 226 229 231 233 235 237 239 243 244 247 250 252 255 258 259 260 263 264 267 269 272 274 276 278 280 282 282 284 284
208 211 212 210 212 212 213 214 215 217 218 218 220 222 224 227 229 232 235 237 240 243 245 247 249 252 254 256 258 261 265 267 269 271 274 275 277 279 281 283 284 285 285
207 212 214 214 213 213 214 216 216 218 221 221 222 223 224 227 228 230 233 236 239 242 246 248 250 253 255 256 259 261 265 268 270 272 273 276 278 281 283 284 285 285 285
210 212 213 216 216 215 216 217 218 219 220 223 225 226 228 229 230 231 234 237 240 243 245 249 251 253 256 259 260 262 264 266 268 271 273 276 279 282 285 286 285 285 287
208 213 213 215 216 218 218 218 219 221 223 224 224 227 229 229 232 234 235 238 241 244 246 249 252 254 256 258 260 262 264 267 269 271 274 278 281 282 284 285 287 287 288
206 210 212 213 215 217 220 221 222 224 225 226 227 229 229 232 233 234 235 238 240 243 246 249 251 254 256 259 262 264 266 268 271 274 276 277 280 283 284 286 287 287 288
203 205 209 213 216 219 221 223 226 227 229 230 231 232 232 233 236 238 239 240 242 244 247 250 252 253 256 258 261 263 265 267 269 271 276 278 279 282 283 285 286 286 286
199 204 206 209 213 218 221 224 227 230 233 234 234 235 235 236 238 240 242 244 246 247 249 251 253 255 256 258 261 263 265 267 269 272 274 277 279 281 282 283 284 284 285
200 202 206 209 211 214 219 223 226 229 231 234 236 237 238 239 240 241 243 245 247 250 252 254 256 258 258 260 262 263 266 267 269 270 272 275 278 278 280 279 280 283 288
205 206 207 211 213 216 219 220 222 225 227 230 233 235 237 239 242 243 244 245 246 248 251 255 256 257 258 260 261 263 264 266 268 269 270 273 274 275 274 277 284 287 289
204 207 207 210 212 214 216 217 219 220 223 227 229 232 234 236 239 242 244 245 247 249 251 252 254 255 257 258 261 262 262 263 265 266 267 268 270 271 277 281 284 285 285
188 189 193 196 204 209 213 217 219 222 225 226 227 229 230 231 233 235 238 239 241 242 244 247 248 249 251 253 255 257 258 259 261 263 265 267 269 273 275 278 280 282 285
182 182 185 192 197 202 206 210 215 218 220 222 224 225 226 227 228 230 232 233 236 234 237 238 242 244 246 248 250 252 256 258 260 262 264 266 269 273 275 278 281 285 288